AAL1364 KMIA-KRIC

Flight info

Callsign AAL1364
Flight time 1h 53m
Altitude 35000
Route FOLZZ3 ALYRA GRUBR Y299 SEELO GARIC ZORDO Q111 RUKRR NEAVL DUCXS5
Aircraft B38M/M-SDE1FGHILORVWXY/HB1

Departure

Time 2026-04-16 12:52
Airport Miami International Airport (KMIA)

Arrival

Time 2026-04-16 14:45
Airport Richmond International Airport (KRIC)
Time Latitude Longitude Altitude Speed Heading
2026-04-16 12:30 25.79727 -80.28449 19 ft 0 kts 357°
2026-04-16 12:44 25.79710 -80.28447 17 ft 4 kts 348°
2026-04-16 12:45 25.79686 -80.28437 21 ft 4 kts 322°
2026-04-16 12:45 25.79671 -80.28415 19 ft 4 kts 279°
2026-04-16 12:45 25.79670 -80.28407 19 ft 1 kts 267°
2026-04-16 12:47 25.79670 -80.28410 19 ft 2 kts 267°
2026-04-16 12:47 25.79669 -80.28441 18 ft 7 kts 267°
2026-04-16 12:47 25.79662 -80.28526 17 ft 15 kts 260°
2026-04-16 12:48 25.79645 -80.28673 17 ft 23 kts 265°
2026-04-16 12:48 25.79647 -80.28852 19 ft 23 kts 281°
2026-04-16 12:48 25.79782 -80.28911 17 ft 23 kts 359°
2026-04-16 12:48 25.79942 -80.28919 18 ft 24 kts 357°
2026-04-16 12:49 25.80011 -80.29037 18 ft 21 kts 265°
2026-04-16 12:49 25.80000 -80.29203 19 ft 22 kts 265°
2026-04-16 12:49 25.79992 -80.29383 17 ft 24 kts 268°
2026-04-16 12:49 25.79982 -80.29580 17 ft 26 kts 268°
2026-04-16 12:50 25.79990 -80.29736 17 ft 19 kts 300°
2026-04-16 12:50 25.80087 -80.29715 16 ft 17 kts 73°
2026-04-16 12:50 25.80090 -80.29693 16 ft 2 kts 82°
2026-04-16 12:50 25.80093 -80.29670 16 ft 4 kts 85°
2026-04-16 12:51 25.80102 -80.29446 17 ft 65 kts 87°
2026-04-16 12:51 25.80133 -80.28689 19 ft 129 kts 88°
2026-04-16 12:51 25.80185 -80.27552 72 ft 173 kts 86°
2026-04-16 12:51 25.80243 -80.26061 351 ft 202 kts 87°
2026-04-16 12:52 25.80079 -80.24536 1194 ft 194 kts 117°
2026-04-16 12:52 25.79373 -80.23300 2019 ft 197 kts 119°
2026-04-16 12:52 25.78667 -80.21888 2331 ft 220 kts 117°
2026-04-16 12:52 25.77924 -80.20335 2853 ft 233 kts 117°
2026-04-16 12:53 25.77180 -80.18756 3862 ft 231 kts 116°
2026-04-16 12:53 25.76386 -80.17146 4494 ft 246 kts 117°
2026-04-16 12:53 25.75544 -80.15457 5282 ft 249 kts 117°
2026-04-16 12:53 25.74710 -80.13766 6050 ft 255 kts 115°
2026-04-16 12:54 25.74237 -80.11888 6788 ft 256 kts 89°
2026-04-16 12:54 25.74623 -80.09965 7487 ft 260 kts 63°
2026-04-16 12:54 25.75702 -80.08334 8206 ft 264 kts 50°
2026-04-16 12:54 25.76882 -80.06792 8963 ft 266 kts 50°
2026-04-16 12:55 25.78094 -80.05222 9738 ft 270 kts 49°
2026-04-16 12:55 25.79344 -80.03618 10411 ft 279 kts 49°
2026-04-16 12:55 25.80661 -80.01936 10756 ft 299 kts 49°
2026-04-16 12:55 25.82073 -80.00138 11033 ft 318 kts 49°
2026-04-16 12:56 25.83554 -79.98255 11352 ft 334 kts 49°
2026-04-16 12:56 25.85116 -79.96270 11846 ft 342 kts 49°
2026-04-16 12:56 25.86684 -79.94276 12613 ft 343 kts 49°
2026-04-16 12:56 25.88274 -79.92254 13257 ft 348 kts 49°
2026-04-16 12:57 25.89857 -79.90240 13999 ft 351 kts 49°
2026-04-16 12:57 25.91480 -79.88175 14600 ft 355 kts 49°
2026-04-16 12:57 25.93116 -79.86092 15255 ft 359 kts 49°
2026-04-16 12:57 25.94772 -79.83982 15893 ft 362 kts 49°
2026-04-16 12:58 25.96418 -79.81884 16509 ft 366 kts 49°
2026-04-16 12:58 25.98099 -79.79740 17129 ft 368 kts 49°
2026-04-16 12:58 25.99795 -79.77575 17728 ft 372 kts 49°
2026-04-16 12:58 26.01482 -79.75424 18329 ft 375 kts 49°
2026-04-16 12:59 26.03212 -79.73215 18825 ft 379 kts 49°
2026-04-16 12:59 26.04955 -79.70989 19350 ft 381 kts 49°
2026-04-16 12:59 26.06709 -79.68747 19837 ft 385 kts 49°
2026-04-16 13:00 26.10230 -79.64232 20814 ft 390 kts 50°
2026-04-16 13:00 26.11817 -79.61745 21291 ft 394 kts 54°
2026-04-16 13:00 26.13376 -79.59255 21742 ft 397 kts 53°
2026-04-16 13:00 26.14986 -79.56713 22211 ft 400 kts 53°
2026-04-16 13:01 26.16590 -79.54198 22669 ft 403 kts 53°
2026-04-16 13:01 26.18231 -79.51632 23116 ft 406 kts 53°
2026-04-16 13:01 26.19867 -79.49073 23547 ft 410 kts 53°
2026-04-16 13:01 26.21542 -79.46453 23943 ft 413 kts 53°
2026-04-16 13:02 26.23200 -79.43858 24319 ft 415 kts 53°
2026-04-16 13:02 26.24882 -79.41223 24718 ft 417 kts 53°
2026-04-16 13:02 26.26574 -79.38574 25127 ft 419 kts 53°
2026-04-16 13:02 26.28303 -79.35988 25487 ft 420 kts 46°
2026-04-16 13:03 26.30534 -79.33904 25869 ft 419 kts 32°
2026-04-16 13:03 26.32979 -79.32097 26214 ft 422 kts 32°
2026-04-16 13:03 26.35446 -79.30292 26599 ft 424 kts 32°
2026-04-16 13:03 26.37935 -79.28494 26974 ft 426 kts 31°
2026-04-16 13:04 26.40411 -79.26720 27333 ft 428 kts 31°
2026-04-16 13:04 26.42936 -79.24917 27699 ft 431 kts 31°
2026-04-16 13:04 26.45474 -79.23107 28045 ft 433 kts 31°
2026-04-16 13:04 26.48021 -79.21289 28372 ft 435 kts 31°
2026-04-16 13:05 26.50553 -79.19481 28663 ft 439 kts 31°
2026-04-16 13:05 26.53145 -79.17630 29011 ft 440 kts 31°
2026-04-16 13:05 26.55745 -79.15771 29341 ft 443 kts 31°
2026-04-16 13:05 26.58322 -79.13929 29660 ft 445 kts 31°
2026-04-16 13:06 26.60940 -79.12056 30007 ft 447 kts 31°
2026-04-16 13:06 26.63576 -79.10169 30303 ft 449 kts 31°
2026-04-16 13:06 26.66189 -79.08298 30571 ft 451 kts 31°
2026-04-16 13:06 26.68837 -79.06400 30865 ft 452 kts 31°
2026-04-16 13:07 26.71496 -79.04493 31168 ft 453 kts 31°
2026-04-16 13:07 26.74160 -79.02582 31470 ft 454 kts 31°
2026-04-16 13:07 26.76787 -79.00696 31790 ft 454 kts 31°
2026-04-16 13:07 26.79465 -78.98773 32148 ft 453 kts 30°
2026-04-16 13:08 26.82123 -78.96862 32537 ft 452 kts 30°
2026-04-16 13:08 26.84756 -78.94969 32917 ft 451 kts 30°
2026-04-16 13:08 26.87406 -78.93063 33312 ft 449 kts 30°
2026-04-16 13:08 26.90002 -78.91194 33703 ft 448 kts 30°
2026-04-16 13:09 26.92624 -78.89305 34103 ft 446 kts 30°
2026-04-16 13:09 26.95238 -78.87422 34460 ft 444 kts 30°
2026-04-16 13:09 26.97816 -78.85563 34801 ft 442 kts 30°
2026-04-16 13:09 27.00421 -78.83684 35024 ft 442 kts 30°
2026-04-16 13:10 27.02963 -78.81848 35024 ft 438 kts 30°
2026-04-16 13:10 27.08099 -78.78137 35028 ft 439 kts 29°
2026-04-16 13:10 27.10670 -78.76278 35137 ft 439 kts 29°
2026-04-16 13:11 27.13248 -78.74414 35202 ft 440 kts 29°
2026-04-16 13:11 27.18364 -78.70709 35194 ft 439 kts 29°
2026-04-16 13:12 27.23508 -78.66980 35205 ft 438 kts 30°
2026-04-16 13:12 27.28789 -78.63700 35183 ft 429 kts 13°
2026-04-16 13:13 27.34673 -78.62618 35187 ft 429 kts
2026-04-16 13:13 27.40555 -78.61783 35202 ft 429 kts
2026-04-16 13:14 27.46488 -78.61000 35203 ft 429 kts
2026-04-16 13:14 27.52432 -78.60227 35203 ft 429 kts
2026-04-16 13:15 27.58349 -78.59459 35205 ft 428 kts
2026-04-16 13:15 27.64259 -78.58690 35208 ft 430 kts
2026-04-16 13:16 27.70192 -78.57917 35208 ft 430 kts
2026-04-16 13:16 27.76157 -78.57140 35208 ft 430 kts
2026-04-16 13:17 27.82093 -78.56365 35209 ft 430 kts
2026-04-16 13:17 27.88056 -78.55586 35208 ft 430 kts
2026-04-16 13:18 27.93992 -78.54810 35213 ft 432 kts
2026-04-16 13:18 27.99979 -78.54026 35214 ft 432 kts
2026-04-16 13:19 28.05939 -78.53245 35210 ft 432 kts
2026-04-16 13:19 28.11892 -78.52464 35214 ft 432 kts
2026-04-16 13:20 28.17877 -78.51678 35216 ft 432 kts
2026-04-16 13:20 28.23839 -78.50894 35219 ft 434 kts
2026-04-16 13:21 28.29859 -78.50101 35216 ft 434 kts
2026-04-16 13:21 28.35836 -78.49313 35217 ft 434 kts
2026-04-16 13:22 28.41819 -78.48524 35214 ft 434 kts
2026-04-16 13:22 28.47848 -78.47727 35221 ft 434 kts
2026-04-16 13:23 28.53860 -78.46932 35225 ft 436 kts
2026-04-16 13:23 28.59866 -78.46137 35222 ft 436 kts
2026-04-16 13:24 28.65903 -78.45336 35222 ft 436 kts
2026-04-16 13:24 28.71902 -78.44540 35222 ft 436 kts
2026-04-16 13:25 28.77952 -78.43737 35225 ft 437 kts
2026-04-16 13:25 28.83985 -78.42934 35226 ft 438 kts
2026-04-16 13:26 28.90053 -78.42126 35224 ft 438 kts
2026-04-16 13:26 28.96089 -78.41321 35224 ft 438 kts
2026-04-16 13:27 29.02159 -78.40510 35224 ft 438 kts
2026-04-16 13:27 29.08202 -78.39703 35226 ft 440 kts
2026-04-16 13:28 29.14276 -78.38890 35226 ft 441 kts
2026-04-16 13:28 29.19350 -78.38210 35227 ft 441 kts
2026-04-16 13:29 29.25465 -78.37390 35230 ft 441 kts
2026-04-16 13:29 29.31528 -78.36576 35227 ft 440 kts
2026-04-16 13:30 29.37646 -78.35754 35232 ft 442 kts
2026-04-16 13:30 29.43747 -78.34933 35232 ft 442 kts
2026-04-16 13:31 29.49801 -78.34848 35216 ft 432 kts 344°
2026-04-16 13:31 29.55623 -78.36593 35216 ft 434 kts 343°
2026-04-16 13:32 29.61461 -78.38439 35235 ft 434 kts 342°
2026-04-16 13:32 29.67263 -78.40321 35231 ft 435 kts 342°
2026-04-16 13:33 29.73103 -78.42222 35230 ft 435 kts 342°
2026-04-16 13:33 29.78922 -78.44119 35233 ft 435 kts 342°
2026-04-16 13:34 29.84731 -78.46016 35231 ft 435 kts 342°
2026-04-16 13:34 29.90561 -78.47922 35235 ft 435 kts 341°
2026-04-16 13:35 29.96370 -78.49823 35232 ft 436 kts 341°
2026-04-16 13:35 30.02223 -78.51741 35237 ft 436 kts 341°
2026-04-16 13:36 30.08032 -78.53646 35240 ft 436 kts 341°
2026-04-16 13:36 30.13850 -78.55446 35229 ft 439 kts 349°
2026-04-16 13:36 30.16950 -78.55478 35239 ft 444 kts
2026-04-16 13:37 30.20031 -78.55098 35222 ft 446 kts
2026-04-16 13:37 30.26207 -78.54291 35240 ft 446 kts
2026-04-16 13:38 30.32348 -78.53424 35233 ft 446 kts
2026-04-16 13:38 30.38526 -78.52539 35238 ft 447 kts
2026-04-16 13:39 30.44698 -78.51582 35244 ft 447 kts
2026-04-16 13:39 30.50850 -78.50584 35240 ft 448 kts
2026-04-16 13:40 30.57005 -78.49588 35241 ft 448 kts
2026-04-16 13:40 30.63208 -78.48583 35243 ft 448 kts
2026-04-16 13:41 30.69358 -78.47585 35243 ft 448 kts
2026-04-16 13:41 30.75533 -78.46583 35246 ft 449 kts
2026-04-16 13:42 30.81755 -78.45571 35239 ft 450 kts
2026-04-16 13:42 30.87946 -78.44563 35239 ft 450 kts
2026-04-16 13:43 30.94161 -78.43550 35244 ft 450 kts
2026-04-16 13:43 31.00338 -78.42541 35248 ft 450 kts
2026-04-16 13:44 31.06574 -78.41522 35245 ft 452 kts
2026-04-16 13:44 31.12819 -78.40500 35238 ft 452 kts
2026-04-16 13:45 31.19018 -78.39484 35242 ft 452 kts
2026-04-16 13:45 31.25216 -78.38467 35240 ft 452 kts
2026-04-16 13:46 31.31474 -78.37439 35242 ft 453 kts
2026-04-16 13:46 31.37711 -78.36412 35239 ft 453 kts
2026-04-16 13:47 31.43947 -78.35385 35238 ft 453 kts
2026-04-16 13:47 31.50190 -78.34355 35236 ft 453 kts
2026-04-16 13:48 31.56420 -78.33326 35242 ft 454 kts
2026-04-16 13:48 31.62704 -78.32286 35229 ft 455 kts
2026-04-16 13:49 31.68949 -78.31251 35241 ft 455 kts
2026-04-16 13:49 31.75244 -78.30207 35232 ft 455 kts
2026-04-16 13:50 31.81512 -78.29166 35239 ft 455 kts
2026-04-16 13:50 31.87773 -78.28125 35231 ft 456 kts
2026-04-16 13:51 31.94044 -78.27080 35231 ft 456 kts
2026-04-16 13:51 32.00348 -78.26029 35233 ft 456 kts
2026-04-16 13:52 32.06628 -78.25103 35233 ft 455 kts
2026-04-16 13:52 32.12899 -78.24191 35234 ft 457 kts
2026-04-16 13:53 32.19238 -78.23264 35227 ft 457 kts
2026-04-16 13:53 32.25531 -78.22343 35225 ft 457 kts
2026-04-16 13:54 32.31828 -78.21420 35232 ft 457 kts
2026-04-16 13:54 32.38169 -78.20489 35235 ft 458 kts
2026-04-16 13:55 32.44468 -78.19563 35222 ft 458 kts
2026-04-16 13:55 32.50801 -78.18631 35222 ft 458 kts
2026-04-16 13:56 32.57120 -78.17699 35222 ft 458 kts
2026-04-16 13:56 32.63466 -78.16763 35224 ft 459 kts
2026-04-16 13:57 32.69794 -78.15827 35223 ft 460 kts
2026-04-16 13:57 32.76162 -78.14885 35219 ft 460 kts
2026-04-16 13:58 32.85667 -78.13475 35216 ft 460 kts
2026-04-16 13:58 32.92024 -78.12530 35217 ft 460 kts
2026-04-16 13:59 32.98392 -78.11583 35217 ft 460 kts
2026-04-16 13:59 33.04756 -78.10634 35216 ft 460 kts
2026-04-16 14:00 33.11125 -78.09684 35226 ft 460 kts
2026-04-16 14:00 33.17458 -78.08738 35219 ft 462 kts
2026-04-16 14:01 33.23849 -78.07781 35212 ft 462 kts
2026-04-16 14:01 33.30203 -78.06829 35211 ft 462 kts
2026-04-16 14:02 33.36589 -78.05870 35208 ft 462 kts
2026-04-16 14:02 33.42985 -78.04909 35207 ft 463 kts
2026-04-16 14:03 33.49385 -78.03945 35205 ft 463 kts
2026-04-16 14:03 33.55759 -78.02984 35204 ft 463 kts
2026-04-16 14:04 33.62119 -78.02024 35203 ft 463 kts
2026-04-16 14:04 33.68535 -78.01054 35205 ft 465 kts
2026-04-16 14:05 33.74963 -78.00081 35201 ft 465 kts
2026-04-16 14:05 33.81364 -77.99110 35201 ft 465 kts
2026-04-16 14:06 33.87800 -77.98126 35202 ft 465 kts
2026-04-16 14:06 33.94240 -77.97120 35205 ft 466 kts
2026-04-16 14:07 34.00654 -77.96117 35197 ft 467 kts
2026-04-16 14:07 34.07112 -77.95106 35206 ft 465 kts
2026-04-16 14:08 34.13473 -77.94109 35189 ft 463 kts
2026-04-16 14:08 34.19877 -77.93104 35183 ft 464 kts
2026-04-16 14:09 34.26298 -77.92094 35184 ft 464 kts
2026-04-16 14:09 34.32722 -77.91082 35183 ft 464 kts
2026-04-16 14:10 34.39113 -77.90074 35195 ft 465 kts
2026-04-16 14:10 34.45548 -77.89058 35174 ft 466 kts
2026-04-16 14:11 34.51941 -77.88046 35171 ft 466 kts
2026-04-16 14:11 34.58387 -77.87025 35167 ft 466 kts
2026-04-16 14:12 34.64789 -77.86009 35183 ft 466 kts
2026-04-16 14:12 34.71237 -77.84984 35166 ft 467 kts
2026-04-16 14:13 34.77701 -77.83955 35167 ft 468 kts
2026-04-16 14:13 34.84158 -77.82925 35164 ft 468 kts
2026-04-16 14:14 34.90557 -77.81576 35185 ft 471 kts
2026-04-16 14:14 34.97031 -77.80125 35171 ft 471 kts
2026-04-16 14:15 35.03458 -77.78697 35166 ft 471 kts
2026-04-16 14:15 35.09916 -77.77260 35162 ft 471 kts
2026-04-16 14:16 35.16373 -77.75821 35161 ft 472 kts
2026-04-16 14:16 35.22840 -77.74378 35155 ft 472 kts
2026-04-16 14:17 35.29277 -77.72939 35156 ft 472 kts
2026-04-16 14:17 35.34665 -77.71733 35157 ft 472 kts
2026-04-16 14:18 35.41135 -77.70283 35155 ft 472 kts
2026-04-16 14:18 35.47613 -77.68828 35151 ft 472 kts
2026-04-16 14:19 35.54092 -77.67371 35147 ft 472 kts
2026-04-16 14:19 35.60536 -77.65968 35132 ft 470 kts
2026-04-16 14:20 35.67025 -77.64844 35131 ft 470 kts
2026-04-16 14:20 35.70223 -77.64275 34667 ft 468 kts
2026-04-16 14:20 35.73475 -77.63694 33703 ft 475 kts
2026-04-16 14:21 35.76767 -77.63103 32812 ft 478 kts
2026-04-16 14:21 35.80074 -77.62511 32059 ft 478 kts
2026-04-16 14:21 35.83368 -77.61920 31321 ft 478 kts
2026-04-16 14:21 35.86633 -77.61335 30551 ft 479 kts
2026-04-16 14:22 35.89933 -77.60742 29804 ft 478 kts
2026-04-16 14:22 35.93224 -77.60151 29121 ft 475 kts
2026-04-16 14:22 35.96492 -77.59563 28546 ft 470 kts
2026-04-16 14:22 35.99711 -77.58983 27916 ft 467 kts
2026-04-16 14:23 36.02917 -77.58405 27324 ft 463 kts
2026-04-16 14:23 36.06101 -77.57832 26725 ft 460 kts
2026-04-16 14:23 36.09230 -77.57267 26138 ft 458 kts
2026-04-16 14:23 36.12376 -77.56700 25557 ft 456 kts
2026-04-16 14:24 36.15516 -77.56131 24933 ft 454 kts
2026-04-16 14:24 36.18641 -77.55566 24350 ft 453 kts
2026-04-16 14:24 36.21772 -77.54999 23767 ft 452 kts
2026-04-16 14:24 36.24846 -77.54442 23099 ft 451 kts
2026-04-16 14:25 36.27949 -77.53880 22491 ft 448 kts
2026-04-16 14:25 36.31025 -77.53321 21927 ft 444 kts
2026-04-16 14:25 36.34076 -77.52768 21378 ft 440 kts
2026-04-16 14:25 36.37104 -77.52218 20811 ft 438 kts
2026-04-16 14:26 36.40076 -77.51676 20264 ft 435 kts
2026-04-16 14:26 36.43064 -77.51132 19725 ft 432 kts
2026-04-16 14:26 36.46034 -77.50591 19187 ft 429 kts
2026-04-16 14:26 36.48991 -77.50052 18664 ft 427 kts
2026-04-16 14:27 36.51925 -77.49525 18096 ft 424 kts
2026-04-16 14:27 36.54847 -77.49603 17372 ft 417 kts 345°
2026-04-16 14:27 36.57546 -77.50734 16918 ft 405 kts 332°
2026-04-16 14:27 36.60084 -77.52221 16419 ft 401 kts 330°
2026-04-16 14:28 36.62586 -77.53727 15930 ft 397 kts 330°
2026-04-16 14:28 36.65056 -77.55240 15444 ft 394 kts 330°
2026-04-16 14:28 36.67473 -77.56738 14971 ft 391 kts 330°
2026-04-16 14:28 36.69898 -77.58249 14506 ft 388 kts 330°
2026-04-16 14:29 36.72311 -77.59759 14052 ft 386 kts 329°
2026-04-16 14:29 36.74679 -77.61241 13556 ft 383 kts 329°
2026-04-16 14:29 36.77060 -77.62732 13062 ft 380 kts 329°
2026-04-16 14:29 36.79413 -77.64207 12609 ft 377 kts 329°
2026-04-16 14:30 36.81745 -77.65671 12182 ft 372 kts 330°
2026-04-16 14:30 36.84031 -77.67107 11987 ft 362 kts 329°
2026-04-16 14:30 36.86252 -77.68502 11843 ft 351 kts 329°
2026-04-16 14:30 36.88399 -77.69853 11643 ft 341 kts 329°
2026-04-16 14:31 36.90493 -77.71169 11489 ft 331 kts 329°
2026-04-16 14:31 36.92495 -77.72430 11330 ft 322 kts 329°
2026-04-16 14:31 36.94462 -77.73668 11205 ft 312 kts 329°
2026-04-16 14:31 36.96422 -77.74736 11130 ft 306 kts 342°
2026-04-16 14:32 36.98541 -77.74836 11057 ft 309 kts
2026-04-16 14:32 37.00536 -77.73848 11072 ft 308 kts 29°
2026-04-16 14:32 37.02368 -77.72463 11062 ft 305 kts 28°
2026-04-16 14:32 37.04204 -77.71100 10660 ft 310 kts 28°
2026-04-16 14:33 37.06063 -77.69711 10112 ft 310 kts 29°
2026-04-16 14:33 37.07911 -77.68330 9569 ft 308 kts 30°
2026-04-16 14:33 37.09720 -77.66975 9015 ft 306 kts 30°
2026-04-16 14:33 37.11534 -77.65615 8601 ft 299 kts 30°
2026-04-16 14:34 37.13412 -77.64637 8271 ft 287 kts
2026-04-16 14:34 37.15380 -77.64569 7991 ft 283 kts 356°
2026-04-16 14:34 37.17356 -77.64605 7770 ft 284 kts 357°
2026-04-16 14:34 37.19332 -77.64649 7515 ft 284 kts 357°
2026-04-16 14:35 37.21291 -77.64698 7251 ft 282 kts 357°
2026-04-16 14:35 37.23246 -77.64752 6985 ft 281 kts 357°
2026-04-16 14:35 37.25209 -77.64809 6723 ft 281 kts 357°
2026-04-16 14:35 37.27161 -77.64866 6453 ft 280 kts 356°
2026-04-16 14:36 37.29114 -77.64924 6181 ft 280 kts 357°
2026-04-16 14:36 37.31047 -77.64982 5880 ft 277 kts 357°
2026-04-16 14:36 37.32951 -77.65039 5658 ft 276 kts 356°
2026-04-16 14:36 37.34866 -77.65097 5354 ft 273 kts 356°
2026-04-16 14:37 37.36759 -77.65155 5053 ft 271 kts 356°
2026-04-16 14:37 37.38637 -77.65212 4758 ft 268 kts 356°
2026-04-16 14:37 37.40505 -77.65268 4460 ft 266 kts 355°
2026-04-16 14:37 37.42326 -77.65322 4163 ft 264 kts 356°
2026-04-16 14:38 37.44154 -77.65375 3861 ft 262 kts 357°
2026-04-16 14:38 37.45943 -77.64969 3556 ft 265 kts 21°
2026-04-16 14:38 37.47539 -77.63830 3267 ft 262 kts 30°
2026-04-16 14:38 37.49040 -77.62592 3039 ft 251 kts 31°
2026-04-16 14:39 37.50446 -77.61429 3049 ft 233 kts 31°
2026-04-16 14:39 37.51761 -77.60345 2975 ft 222 kts 31°
2026-04-16 14:39 37.53037 -77.59254 3014 ft 221 kts 31°
2026-04-16 14:39 37.54310 -77.58148 3000 ft 223 kts 37°
2026-04-16 14:40 37.55210 -77.56613 2941 ft 222 kts 69°
2026-04-16 14:40 37.55663 -77.54735 2871 ft 226 kts 73°
2026-04-16 14:40 37.56077 -77.52841 2803 ft 222 kts 73°
2026-04-16 14:40 37.56451 -77.50988 2676 ft 216 kts 78°
2026-04-16 14:41 37.56750 -77.49150 2635 ft 213 kts 78°
2026-04-16 14:41 37.57049 -77.47324 2642 ft 213 kts 78°
2026-04-16 14:41 37.57350 -77.45503 2601 ft 212 kts 77°
2026-04-16 14:41 37.57671 -77.43684 2612 ft 211 kts 73°
2026-04-16 14:42 37.58089 -77.41972 2579 ft 204 kts 71°
2026-04-16 14:42 37.58405 -77.40244 2359 ft 203 kts 88°
2026-04-16 14:42 37.58196 -77.38512 2065 ft 197 kts 113°
2026-04-16 14:42 37.57503 -77.37066 1638 ft 192 kts 134°
2026-04-16 14:43 37.56530 -77.36040 1354 ft 171 kts 153°
2026-04-16 14:43 37.55553 -77.35388 1194 ft 152 kts 156°
2026-04-16 14:43 37.54633 -77.34732 982 ft 150 kts 152°
2026-04-16 14:43 37.53768 -77.34051 713 ft 145 kts 150°
2026-04-16 14:44 37.52920 -77.33367 521 ft 144 kts 150°
2026-04-16 14:44 37.52070 -77.32677 328 ft 150 kts 150°
2026-04-16 14:44 37.51224 -77.31998 182 ft 136 kts 151°
2026-04-16 14:44 37.50587 -77.31500 178 ft 77 kts 147°
2026-04-16 14:45 37.50237 -77.31223 175 ft 55 kts 143°
2026-04-16 14:45 37.49923 -77.30966 175 ft 52 kts 147°
2026-04-16 14:45 37.49636 -77.30741 176 ft 36 kts 154°
2026-04-16 14:45 37.49545 -77.30786 176 ft 11 kts 233°
2026-04-16 14:46 37.49518 -77.30832 176 ft 1 kts 234°
2026-04-16 14:46 37.49509 -77.30849 176 ft 4 kts 236°
2026-04-16 14:46 37.49496 -77.30889 176 ft 6 kts 262°
2026-04-16 14:46 37.49517 -77.30944 176 ft 8 kts 315°
2026-04-16 14:47 37.49569 -77.30992 176 ft 11 kts 324°
2026-04-16 14:47 37.49638 -77.31051 176 ft 13 kts 326°
2026-04-16 14:47 37.49726 -77.31118 176 ft 16 kts 329°
2026-04-16 14:47 37.49828 -77.31201 176 ft 19 kts 326°
2026-04-16 14:48 37.49948 -77.31296 176 ft 23 kts 330°
2026-04-16 14:48 37.50093 -77.31411 176 ft 27 kts 327°
2026-04-16 14:48 37.50263 -77.31547 176 ft 28 kts 329°
2026-04-16 14:48 37.50432 -77.31684 176 ft 27 kts 328°
2026-04-16 14:49 37.50597 -77.31813 176 ft 29 kts 327°
2026-04-16 14:49 37.50726 -77.31917 176 ft 23 kts 328°
2026-04-16 14:49 37.50843 -77.32009 176 ft 21 kts 328°
2026-04-16 14:49 37.50940 -77.32135 176 ft 17 kts 279°
2026-04-16 14:50 37.50954 -77.32243 176 ft 13 kts 278°
2026-04-16 14:50 37.50966 -77.32368 176 ft 16 kts 276°
2026-04-16 14:50 37.50976 -77.32489 176 ft 6 kts 276°
2026-04-16 14:50 37.50982 -77.32553 176 ft 9 kts 276°
2026-04-16 14:51 37.50987 -77.32643 176 ft 12 kts 266°
2026-04-16 14:51 37.50972 -77.32742 176 ft 11 kts 257°
2026-04-16 14:51 37.50967 -77.32766 176 ft 1 kts 257°
2026-04-16 14:51 37.50962 -77.32796 176 ft 6 kts 257°
2026-04-16 14:53 37.50972 -77.32961 176 ft 0 kts 285°